KLM701 EHAM-SAEZ

Flight info

Callsign KLM701
Flight time N/A
Altitude 30000
Route IDRID L980 LAM L179 UGBET Q60 OKSAW DCT FELCA DCT FADZU DCT BANBA DCT LIMRI/M083F300 DCT 50N020W 45N030W 3930N03500W/M083F320 33N040W 24N050W/M083F340 DCT HIGNZ/N0492F340 DCT 15N055W DCT PIPUV DCT USABO UL322 BUVIP DCT KUMOS UL322 MNS/N0487F350 UZ6 UTPAM UZ87 ETAXA DCT ESDAG/N0484F360 DCT CIA DCT AKRIL/N0482F370 UZ52 XOKUD UZ63 GRD/N0479F360 UM544 VAS UP526 ASATI/N0478F380 UP526 GEMSU/N0472F370 UP526 DAYMA/N0473F380 UL324 KUKEN KUKEN7B
Aircraft B77W/H-SDE1E2E3FGHIJ2J3J4J5M1RWXY/LB1D1

Departure

Time N/A
Airport Amsterdam Airport Schiphol (EHAM)

Arrival

Time 2026-04-28 01:22
Airport Ezeiza International Airport - Ministro Pistarini (SAEZ)
Time Latitude Longitude Altitude Speed Heading
2026-04-27 21:11 -4.95409 -59.07224 35904 ft 483 kts 160°
2026-04-27 21:12 -4.98602 -59.06169 35904 ft 483 kts 160°
2026-04-27 21:12 -5.04990 -59.04058 35901 ft 483 kts 160°
2026-04-27 21:13 -5.11338 -59.01960 35904 ft 483 kts 160°
2026-04-27 21:13 -5.17744 -58.99841 35900 ft 483 kts 160°
2026-04-27 21:14 -5.24121 -58.97733 35902 ft 483 kts 160°
2026-04-27 21:14 -5.30472 -58.95632 35899 ft 483 kts 161°
2026-04-27 21:15 -5.36864 -58.93517 35901 ft 483 kts 161°
2026-04-27 21:15 -5.43249 -58.91404 35902 ft 483 kts 161°
2026-04-27 21:16 -5.49644 -58.89288 35900 ft 483 kts 161°
2026-04-27 21:16 -5.55995 -58.87185 35903 ft 483 kts 161°
2026-04-27 21:17 -5.62378 -58.85072 35900 ft 483 kts 161°
2026-04-27 21:17 -5.67700 -58.83309 35903 ft 483 kts 161°
2026-04-27 21:18 -5.75171 -58.80834 35904 ft 484 kts 161°
2026-04-27 21:18 -5.80482 -58.79074 35903 ft 484 kts 161°
2026-04-27 21:19 -5.86878 -58.76955 35902 ft 484 kts 161°
2026-04-27 21:19 -5.93273 -58.74835 35901 ft 484 kts 161°
2026-04-27 21:20 -6.02866 -58.71653 35901 ft 484 kts 161°
2026-04-27 21:20 -6.09255 -58.69534 35905 ft 484 kts 161°
2026-04-27 21:21 -6.15612 -58.67425 35904 ft 484 kts 161°
2026-04-27 21:21 -6.22003 -58.65304 35909 ft 483 kts 161°
2026-04-27 21:22 -6.28401 -58.63180 35905 ft 483 kts 161°
2026-04-27 21:22 -6.34787 -58.61059 35908 ft 484 kts 161°
2026-04-27 21:23 -6.41148 -58.58947 35909 ft 484 kts 161°
2026-04-27 21:23 -6.47537 -58.56824 35911 ft 483 kts 161°
2026-04-27 21:24 -6.53930 -58.54700 35910 ft 483 kts 161°
2026-04-27 21:24 -6.60323 -58.52575 35906 ft 483 kts 161°
2026-04-27 21:25 -6.66711 -58.50451 35906 ft 483 kts 161°
2026-04-27 21:25 -6.73093 -58.48328 35910 ft 483 kts 161°
2026-04-27 21:26 -6.79435 -58.46218 35908 ft 483 kts 161°
2026-04-27 21:26 -6.85808 -58.44098 35911 ft 482 kts 161°
2026-04-27 21:27 -6.92199 -58.41970 35909 ft 482 kts 161°
2026-04-27 21:27 -6.98571 -58.39849 35911 ft 482 kts 161°
2026-04-27 21:28 -7.04940 -58.37728 35910 ft 482 kts 161°
2026-04-27 21:28 -7.11282 -58.35615 35911 ft 482 kts 161°
2026-04-27 21:29 -7.17668 -58.33487 35911 ft 482 kts 161°
2026-04-27 21:29 -7.24045 -58.31361 35909 ft 482 kts 161°
2026-04-27 21:30 -7.30423 -58.29234 35907 ft 482 kts 161°
2026-04-27 21:30 -7.36758 -58.27121 35906 ft 482 kts 161°
2026-04-27 21:31 -7.43135 -58.24993 35906 ft 482 kts 161°
2026-04-27 21:31 -7.49508 -58.22866 35904 ft 482 kts 161°
2026-04-27 21:32 -7.55907 -58.20730 35903 ft 482 kts 161°
2026-04-27 21:32 -7.62244 -58.18613 35909 ft 482 kts 161°
2026-04-27 21:33 -7.68628 -58.16481 35903 ft 483 kts 161°
2026-04-27 21:33 -7.75010 -58.14348 35906 ft 483 kts 161°
2026-04-27 21:34 -7.81390 -58.12216 35907 ft 483 kts 161°
2026-04-27 21:34 -7.87783 -58.10078 35906 ft 483 kts 161°
2026-04-27 21:35 -7.94127 -58.07956 35907 ft 483 kts 161°
2026-04-27 21:35 -8.00513 -58.05820 35905 ft 483 kts 161°
2026-04-27 21:36 -8.06896 -58.03683 35905 ft 483 kts 161°
2026-04-27 21:36 -8.13282 -58.01545 35908 ft 483 kts 161°
2026-04-27 21:37 -8.19664 -57.99407 35909 ft 483 kts 161°
2026-04-27 21:37 -8.26050 -57.97268 35907 ft 483 kts 161°
2026-04-27 21:38 -8.32400 -57.95140 35906 ft 483 kts 161°
2026-04-27 21:38 -8.38787 -57.92998 35908 ft 483 kts 161°
2026-04-27 21:39 -8.45169 -57.90858 35910 ft 483 kts 161°
2026-04-27 21:39 -8.51556 -57.88715 35911 ft 484 kts 161°
2026-04-27 21:40 -8.57944 -57.86571 35910 ft 484 kts 161°
2026-04-27 21:40 -8.64338 -57.84424 35912 ft 484 kts 161°
2026-04-27 21:41 -8.70734 -57.82276 35914 ft 484 kts 161°
2026-04-27 21:41 -8.77095 -57.80139 35917 ft 485 kts 161°
2026-04-27 21:42 -8.83502 -57.77985 35914 ft 485 kts 161°
2026-04-27 21:42 -8.89924 -57.75826 35917 ft 486 kts 161°
2026-04-27 21:43 -8.96303 -57.73680 35917 ft 486 kts 161°
2026-04-27 21:43 -9.02721 -57.71521 35920 ft 486 kts 161°
2026-04-27 21:44 -9.09145 -57.69358 35917 ft 486 kts 161°
2026-04-27 21:44 -9.15574 -57.67193 35918 ft 486 kts 161°
2026-04-27 21:45 -9.21994 -57.65031 35918 ft 486 kts 161°
2026-04-27 21:45 -9.28420 -57.62865 35918 ft 486 kts 161°
2026-04-27 21:46 -9.34796 -57.60715 35915 ft 486 kts 161°
2026-04-27 21:46 -9.41213 -57.58551 35919 ft 486 kts 161°
2026-04-27 21:47 -9.47627 -57.56388 35912 ft 486 kts 161°
2026-04-27 21:47 -9.54042 -57.54222 35918 ft 486 kts 161°
2026-04-27 21:48 -9.60479 -57.52049 35919 ft 487 kts 161°
2026-04-27 21:48 -9.66911 -57.49876 35916 ft 488 kts 161°
2026-04-27 21:49 -9.73312 -57.47713 35918 ft 488 kts 161°
2026-04-27 21:49 -9.79760 -57.45533 35915 ft 489 kts 161°
2026-04-27 21:50 -9.86217 -57.43349 35918 ft 489 kts 161°
2026-04-27 21:50 -9.92678 -57.41163 35917 ft 489 kts 161°
2026-04-27 21:51 -9.99142 -57.38975 35921 ft 489 kts 161°
2026-04-27 21:51 -10.05609 -57.36785 35920 ft 489 kts 161°
2026-04-27 21:52 -10.12073 -57.34596 35920 ft 489 kts 161°
2026-04-27 21:52 -10.18499 -57.32418 35921 ft 490 kts 161°
2026-04-27 21:53 -10.24974 -57.30222 35919 ft 490 kts 161°
2026-04-27 21:53 -10.31450 -57.28025 35925 ft 490 kts 161°
2026-04-27 21:54 -10.37885 -57.25842 35923 ft 490 kts 161°
2026-04-27 21:54 -10.44357 -57.23645 35922 ft 490 kts 161°
2026-04-27 21:55 -10.50828 -57.21447 35923 ft 490 kts 161°
2026-04-27 21:55 -10.57296 -57.19249 35924 ft 490 kts 161°
2026-04-27 21:56 -10.66966 -57.15961 35925 ft 490 kts 161°
2026-04-27 21:57 -10.73426 -57.13764 35927 ft 490 kts 161°
2026-04-27 21:57 -10.79902 -57.11560 35928 ft 490 kts 161°
2026-04-27 21:58 -10.86331 -57.09370 35927 ft 489 kts 161°
2026-04-27 21:58 -10.92791 -57.07170 35926 ft 489 kts 161°
2026-04-27 21:59 -10.99244 -57.04971 35927 ft 489 kts 161°
2026-04-27 21:59 -11.05703 -57.02768 35928 ft 488 kts 161°
2026-04-27 22:00 -11.12145 -57.00571 35932 ft 488 kts 162°
2026-04-27 22:00 -11.18585 -56.98373 35931 ft 488 kts 162°
2026-04-27 22:01 -11.25022 -56.96175 35935 ft 487 kts 162°
2026-04-27 22:01 -11.31414 -56.93991 35931 ft 487 kts 162°
2026-04-27 22:02 -11.37845 -56.91793 35932 ft 487 kts 162°
2026-04-27 22:02 -11.44280 -56.89593 35936 ft 487 kts 162°
2026-04-27 22:03 -11.50711 -56.87392 35935 ft 487 kts 162°
2026-04-27 22:03 -11.57106 -56.85203 35935 ft 487 kts 162°
2026-04-27 22:04 -11.63635 -56.83277 35930 ft 487 kts 170°
2026-04-27 22:04 -11.70312 -56.82099 35934 ft 487 kts 171°
2026-04-27 22:05 -11.76998 -56.80979 35937 ft 487 kts 171°
2026-04-27 22:05 -11.83650 -56.79834 35938 ft 487 kts 171°
2026-04-27 22:06 -11.90338 -56.78657 35930 ft 488 kts 171°
2026-04-27 22:06 -11.97031 -56.77470 35934 ft 488 kts 171°
2026-04-27 22:07 -12.03690 -56.76288 35936 ft 488 kts 171°
2026-04-27 22:07 -12.09299 -56.75293 35933 ft 488 kts 171°
2026-04-27 22:08 -12.15948 -56.74115 35931 ft 487 kts 171°
2026-04-27 22:08 -12.22634 -56.72929 35933 ft 487 kts 171°
2026-04-27 22:09 -12.29318 -56.71743 35936 ft 487 kts 171°
2026-04-27 22:09 -12.35999 -56.70557 35932 ft 487 kts 171°
2026-04-27 22:10 -12.42689 -56.69369 35933 ft 487 kts 171°
2026-04-27 22:10 -12.49367 -56.68182 35932 ft 487 kts 171°
2026-04-27 22:11 -12.56051 -56.66994 35928 ft 487 kts 171°
2026-04-27 22:11 -12.62699 -56.65811 35933 ft 488 kts 171°
2026-04-27 22:12 -12.69398 -56.64619 35930 ft 488 kts 171°
2026-04-27 22:12 -12.76117 -56.63422 35928 ft 489 kts 171°
2026-04-27 22:13 -12.82777 -56.62235 35929 ft 489 kts 171°
2026-04-27 22:13 -12.89494 -56.61038 35932 ft 489 kts 171°
2026-04-27 22:14 -12.96213 -56.59839 35933 ft 490 kts 171°
2026-04-27 22:14 -13.02933 -56.58640 35938 ft 490 kts 172°
2026-04-27 22:15 -13.09659 -56.57439 35937 ft 490 kts 172°
2026-04-27 22:15 -13.16343 -56.56245 35939 ft 491 kts 172°
2026-04-27 22:16 -13.23074 -56.55041 35942 ft 491 kts 172°
2026-04-27 22:16 -13.29815 -56.53836 35941 ft 491 kts 172°
2026-04-27 22:17 -13.36568 -56.52627 35945 ft 492 kts 172°
2026-04-27 22:17 -13.43271 -56.51427 35946 ft 492 kts 172°
2026-04-27 22:18 -13.50021 -56.50217 35950 ft 492 kts 172°
2026-04-27 22:18 -13.56778 -56.49006 35951 ft 492 kts 172°
2026-04-27 22:19 -13.63528 -56.47795 35960 ft 492 kts 172°
2026-04-27 22:19 -13.70296 -56.46580 35960 ft 493 kts 172°
2026-04-27 22:20 -13.77053 -56.45366 35960 ft 492 kts 172°
2026-04-27 22:20 -13.83765 -56.44160 35966 ft 492 kts 172°
2026-04-27 22:21 -13.90523 -56.42945 35964 ft 492 kts 172°
2026-04-27 22:21 -13.97279 -56.41730 35970 ft 492 kts 172°
2026-04-27 22:22 -14.04020 -56.40516 35969 ft 492 kts 172°
2026-04-27 22:22 -14.10765 -56.39301 35970 ft 492 kts 172°
2026-04-27 22:23 -14.17468 -56.38093 35968 ft 492 kts 172°
2026-04-27 22:23 -14.24213 -56.36877 35975 ft 492 kts 172°
2026-04-27 22:24 -14.30952 -56.35660 35969 ft 492 kts 172°
2026-04-27 22:24 -14.37699 -56.34442 35972 ft 491 kts 172°
2026-04-27 22:25 -14.44422 -56.33228 35964 ft 491 kts 172°
2026-04-27 22:25 -14.51161 -56.32009 35962 ft 491 kts 172°
2026-04-27 22:26 -14.57902 -56.30790 35962 ft 491 kts 172°
2026-04-27 22:26 -14.64592 -56.29579 35966 ft 491 kts 172°
2026-04-27 22:27 -14.71333 -56.28358 35963 ft 491 kts 172°
2026-04-27 22:27 -14.78070 -56.27137 35962 ft 491 kts 172°
2026-04-27 22:28 -14.84805 -56.25916 35962 ft 491 kts 172°
2026-04-27 22:28 -14.91502 -56.24700 35963 ft 491 kts 172°
2026-04-27 22:29 -14.98236 -56.23477 35960 ft 491 kts 172°
2026-04-27 22:29 -15.04968 -56.22254 35970 ft 491 kts 172°
2026-04-27 22:30 -15.11708 -56.21029 35971 ft 491 kts 172°
2026-04-27 22:30 -15.18439 -56.19804 35969 ft 491 kts 172°
2026-04-27 22:31 -15.25174 -56.18578 35967 ft 491 kts 172°
2026-04-27 22:31 -15.31910 -56.17351 35975 ft 491 kts 172°
2026-04-27 22:32 -15.38598 -56.16132 35968 ft 490 kts 172°
2026-04-27 22:32 -15.45323 -56.14905 35969 ft 490 kts 172°
2026-04-27 22:33 -15.52051 -56.13677 35969 ft 491 kts 172°
2026-04-27 22:33 -15.58795 -56.12444 35971 ft 492 kts 172°
2026-04-27 22:34 -15.65498 -56.11219 35967 ft 492 kts 172°
2026-04-27 22:34 -15.72225 -56.09802 35972 ft 494 kts 169°
2026-04-27 22:35 -15.78937 -56.08211 35965 ft 494 kts 169°
2026-04-27 22:35 -15.85647 -56.06629 35970 ft 495 kts 169°
2026-04-27 22:36 -15.92342 -56.05084 35968 ft 495 kts 169°
2026-04-27 22:36 -15.99073 -56.03545 35970 ft 495 kts 169°
2026-04-27 22:37 -16.05816 -56.02002 35970 ft 495 kts 169°
2026-04-27 22:37 -16.12559 -56.00458 35968 ft 496 kts 169°
2026-04-27 22:38 -16.19300 -55.98911 35967 ft 496 kts 169°
2026-04-27 22:38 -16.25992 -55.97374 35967 ft 496 kts 169°
2026-04-27 22:39 -16.32744 -55.95823 35967 ft 496 kts 169°
2026-04-27 22:39 -16.39496 -55.94270 35973 ft 496 kts 169°
2026-04-27 22:40 -16.46248 -55.92716 35968 ft 497 kts 169°
2026-04-27 22:40 -16.53004 -55.91161 35970 ft 497 kts 169°
2026-04-27 22:41 -16.59754 -55.89605 35967 ft 497 kts 169°
2026-04-27 22:41 -16.66469 -55.88057 35969 ft 497 kts 169°
2026-04-27 22:42 -16.73233 -55.86496 35966 ft 497 kts 169°
2026-04-27 22:42 -16.79993 -55.84935 35970 ft 497 kts 169°
2026-04-27 22:43 -16.86759 -55.83371 35970 ft 497 kts 169°
2026-04-27 22:43 -16.93473 -55.81819 35970 ft 497 kts 169°
2026-04-27 22:44 -17.00228 -55.80255 35968 ft 497 kts 170°
2026-04-27 22:44 -17.06990 -55.78689 35967 ft 497 kts 170°
2026-04-27 22:45 -17.13746 -55.77123 35967 ft 497 kts 170°
2026-04-27 22:45 -17.20510 -55.75554 35966 ft 497 kts 170°
2026-04-27 22:46 -17.27278 -55.73983 35967 ft 498 kts 170°
2026-04-27 22:46 -17.34012 -55.72419 35962 ft 498 kts 170°
2026-04-27 22:47 -17.40788 -55.70843 35969 ft 499 kts 170°
2026-04-27 22:47 -17.47570 -55.69265 35965 ft 499 kts 170°
2026-04-27 22:48 -17.54349 -55.67686 35964 ft 499 kts 170°
2026-04-27 22:48 -17.61133 -55.66094 35965 ft 499 kts 168°
2026-04-27 22:49 -17.67529 -55.63218 35983 ft 505 kts 149°
2026-04-27 22:49 -17.72934 -55.58582 35986 ft 507 kts 136°
2026-04-27 22:50 -17.77976 -55.53365 35981 ft 508 kts 137°
2026-04-27 22:50 -17.83298 -55.48508 35964 ft 506 kts 148°
2026-04-27 22:51 -17.89510 -55.45122 35965 ft 502 kts 162°
2026-04-27 22:51 -17.96194 -55.43060 35965 ft 500 kts 167°
2026-04-27 22:52 -18.01788 -55.41481 35983 ft 501 kts 167°
2026-04-27 22:52 -18.08518 -55.39541 35975 ft 501 kts 167°
2026-04-27 22:53 -18.16358 -55.37218 35975 ft 502 kts 166°
2026-04-27 22:53 -18.21953 -55.35545 35977 ft 502 kts 166°
2026-04-27 22:54 -18.28627 -55.33549 35975 ft 502 kts 166°
2026-04-27 22:54 -18.35347 -55.31540 35975 ft 501 kts 166°
2026-04-27 22:55 -18.42061 -55.29533 35978 ft 501 kts 166°
2026-04-27 22:55 -18.48777 -55.27524 35983 ft 501 kts 166°
2026-04-27 22:56 -18.55499 -55.25512 35980 ft 501 kts 166°
2026-04-27 22:56 -18.62204 -55.23502 35978 ft 501 kts 166°
2026-04-27 22:57 -18.68879 -55.21500 35976 ft 501 kts 166°
2026-04-27 22:57 -18.75584 -55.19488 35982 ft 501 kts 166°
2026-04-27 22:58 -18.82293 -55.17472 35988 ft 501 kts 166°
2026-04-27 22:58 -18.89013 -55.15452 35987 ft 501 kts 166°
2026-04-27 22:59 -18.95718 -55.13434 35990 ft 501 kts 166°
2026-04-27 22:59 -19.02377 -55.11428 35988 ft 501 kts 166°
2026-04-27 23:00 -19.12438 -55.08395 35989 ft 501 kts 166°
2026-04-27 23:00 -19.19149 -55.06369 36001 ft 501 kts 166°
2026-04-27 23:01 -19.25856 -55.04343 35996 ft 501 kts 166°
2026-04-27 23:01 -19.32560 -55.02316 36002 ft 501 kts 166°
2026-04-27 23:02 -19.39230 -55.00331 36001 ft 500 kts 167°
2026-04-27 23:02 -19.45949 -54.98372 36000 ft 500 kts 167°
2026-04-27 23:03 -19.52672 -54.96409 36001 ft 500 kts 167°
2026-04-27 23:03 -19.59337 -54.94453 35998 ft 500 kts 167°
2026-04-27 23:04 -19.66043 -54.92481 36003 ft 500 kts 167°
2026-04-27 23:04 -19.72756 -54.90506 35996 ft 500 kts 167°
2026-04-27 23:05 -19.79458 -54.88531 36003 ft 500 kts 167°
2026-04-27 23:05 -19.86169 -54.86553 36003 ft 500 kts 167°
2026-04-27 23:06 -19.92883 -54.84573 36003 ft 501 kts 167°
2026-04-27 23:06 -19.99604 -54.82588 36001 ft 502 kts 167°
2026-04-27 23:07 -20.06343 -54.80596 36004 ft 502 kts 167°
2026-04-27 23:07 -20.13082 -54.78601 36005 ft 503 kts 167°
2026-04-27 23:08 -20.19798 -54.76645 36025 ft 502 kts 168°
2026-04-27 23:08 -20.26584 -54.74818 36031 ft 503 kts 168°
2026-04-27 23:09 -20.33394 -54.72991 36047 ft 503 kts 168°
2026-04-27 23:09 -20.40137 -54.71154 36048 ft 503 kts 168°
2026-04-27 23:10 -20.46985 -54.69894 36042 ft 495 kts 184°
2026-04-27 23:10 -20.53665 -54.71193 36047 ft 484 kts 206°
2026-04-27 23:11 -20.59794 -54.74138 36047 ft 483 kts 208°
2026-04-27 23:11 -20.65878 -54.77116 36036 ft 485 kts 208°
2026-04-27 23:12 -20.72053 -54.80060 36029 ft 487 kts 207°
2026-04-27 23:12 -20.78259 -54.82987 36025 ft 488 kts 207°
2026-04-27 23:13 -20.84486 -54.85929 36019 ft 489 kts 207°
2026-04-27 23:13 -20.90717 -54.88880 36022 ft 489 kts 208°
2026-04-27 23:14 -20.96940 -54.91844 36023 ft 488 kts 208°
2026-04-27 23:14 -21.03123 -54.94836 36026 ft 487 kts 208°
2026-04-27 23:15 -21.09237 -54.97808 36026 ft 485 kts 210°
2026-04-27 23:15 -21.15245 -55.01054 36036 ft 482 kts 212°
2026-04-27 23:16 -21.21179 -55.04388 36032 ft 481 kts 212°
2026-04-27 23:16 -21.27126 -55.07698 36034 ft 480 kts 211°
2026-04-27 23:17 -21.33039 -55.10955 36031 ft 480 kts 211°
2026-04-27 23:17 -21.38981 -55.14219 36041 ft 479 kts 211°
2026-04-27 23:18 -21.44931 -55.17492 36045 ft 480 kts 211°
2026-04-27 23:18 -21.50883 -55.20770 36028 ft 481 kts 211°
2026-04-27 23:19 -21.56836 -55.24053 36037 ft 481 kts 212°
2026-04-27 23:19 -21.62796 -55.27342 36037 ft 482 kts 212°
2026-04-27 23:20 -21.68739 -55.30625 36035 ft 483 kts 212°
2026-04-27 23:20 -21.74718 -55.33931 36047 ft 483 kts 212°
2026-04-27 23:21 -21.80705 -55.37244 36042 ft 483 kts 212°
2026-04-27 23:21 -21.86632 -55.40527 36051 ft 483 kts 212°
2026-04-27 23:22 -21.92650 -55.43864 36044 ft 482 kts 212°
2026-04-27 23:22 -21.98581 -55.47156 36053 ft 482 kts 212°
2026-04-27 23:23 -22.04536 -55.50464 36054 ft 481 kts 212°
2026-04-27 23:23 -22.10487 -55.53774 36055 ft 481 kts 213°
2026-04-27 23:24 -22.16431 -55.57083 36060 ft 481 kts 213°
2026-04-27 23:24 -22.22378 -55.60396 36059 ft 481 kts 213°
2026-04-27 23:25 -22.28329 -55.63715 36067 ft 480 kts 213°
2026-04-27 23:25 -22.34266 -55.67030 36072 ft 480 kts 213°
2026-04-27 23:26 -22.40189 -55.70340 36076 ft 479 kts 213°
2026-04-27 23:26 -22.46088 -55.73640 36079 ft 479 kts 213°
2026-04-27 23:27 -22.51950 -55.77049 36083 ft 476 kts 216°
2026-04-27 23:27 -22.57679 -55.80649 36082 ft 476 kts 216°
2026-04-27 23:28 -22.63404 -55.84258 36071 ft 476 kts 216°
2026-04-27 23:28 -22.68165 -55.87230 36075 ft 476 kts 216°
2026-04-27 23:29 -22.74881 -55.91404 36073 ft 475 kts 216°
2026-04-27 23:29 -22.80589 -55.94953 36065 ft 475 kts 216°
2026-04-27 23:30 -22.86316 -55.98520 36066 ft 474 kts 216°
2026-04-27 23:30 -22.92045 -56.02092 36066 ft 474 kts 217°
2026-04-27 23:31 -22.97745 -56.05651 36071 ft 474 kts 217°
2026-04-27 23:31 -23.03460 -56.09222 36070 ft 474 kts 217°
2026-04-27 23:32 -23.09176 -56.12803 36074 ft 474 kts 217°
2026-04-27 23:32 -23.14870 -56.16416 36077 ft 474 kts 217°
2026-04-27 23:33 -23.20562 -56.20045 36075 ft 474 kts 217°
2026-04-27 23:33 -23.26259 -56.23676 36073 ft 474 kts 217°
2026-04-27 23:34 -23.31920 -56.27284 36065 ft 473 kts 217°
2026-04-27 23:34 -23.37602 -56.30907 36081 ft 473 kts 217°
2026-04-27 23:35 -23.43279 -56.34531 36075 ft 472 kts 218°
2026-04-27 23:35 -23.48942 -56.38150 36071 ft 472 kts 218°
2026-04-27 23:36 -23.54612 -56.41778 36082 ft 471 kts 218°
2026-04-27 23:36 -23.60267 -56.45399 36072 ft 471 kts 218°
2026-04-27 23:37 -23.65879 -56.48997 36079 ft 470 kts 218°
2026-04-27 23:37 -23.70612 -56.52035 36075 ft 470 kts 218°
2026-04-27 23:38 -23.77173 -56.56248 36080 ft 470 kts 218°
2026-04-27 23:38 -23.81857 -56.59260 36081 ft 470 kts 218°
2026-04-27 23:39 -23.87502 -56.62893 36077 ft 469 kts 218°
2026-04-27 23:39 -23.93094 -56.66495 36085 ft 469 kts 218°
2026-04-27 23:40 -23.98723 -56.70125 36071 ft 469 kts 218°
2026-04-27 23:40 -24.04340 -56.73752 36076 ft 469 kts 218°
2026-04-27 23:41 -24.09957 -56.77381 36080 ft 468 kts 218°
2026-04-27 23:41 -24.15574 -56.81015 36079 ft 468 kts 218°
2026-04-27 23:42 -24.21137 -56.84617 36082 ft 467 kts 218°
2026-04-27 23:42 -24.26734 -56.88245 36080 ft 467 kts 219°
2026-04-27 23:43 -24.32318 -56.91869 36086 ft 466 kts 219°
2026-04-27 23:43 -24.37894 -56.95491 36090 ft 465 kts 219°
2026-04-27 23:44 -24.43463 -56.99113 36089 ft 465 kts 219°
2026-04-27 23:44 -24.49026 -57.02734 36095 ft 464 kts 219°
2026-04-27 23:45 -24.54545 -57.06330 36093 ft 463 kts 219°
2026-04-27 23:45 -24.60090 -57.09946 36091 ft 462 kts 219°
2026-04-27 23:46 -24.65610 -57.13552 36098 ft 461 kts 219°
2026-04-27 23:46 -24.71118 -57.17154 36096 ft 460 kts 219°
2026-04-27 23:47 -24.76625 -57.20760 36106 ft 460 kts 219°
2026-04-27 23:47 -24.82121 -57.24362 36102 ft 459 kts 219°
2026-04-27 23:48 -24.87607 -57.27960 36093 ft 459 kts 220°
2026-04-27 23:48 -24.93053 -57.31538 36098 ft 458 kts 220°
2026-04-27 23:49 -24.98532 -57.35139 36107 ft 458 kts 220°
2026-04-27 23:49 -25.04002 -57.38740 36108 ft 458 kts 220°
2026-04-27 23:50 -25.09484 -57.42352 36115 ft 458 kts 220°
2026-04-27 23:50 -25.14916 -57.45935 36112 ft 457 kts 220°
2026-04-27 23:51 -25.20397 -57.49524 36108 ft 460 kts 217°
2026-04-27 23:51 -25.23374 -57.50951 36106 ft 473 kts 208°
2026-04-27 23:51 -25.26578 -57.51918 36113 ft 482 kts 201°
2026-04-27 23:52 -25.29935 -57.52436 36098 ft 495 kts 192°
2026-04-27 23:52 -25.33390 -57.52535 36116 ft 498 kts 190°
2026-04-27 23:52 -25.40340 -57.52517 36107 ft 499 kts 189°
2026-04-27 23:53 -25.47259 -57.52512 36117 ft 499 kts 189°
2026-04-27 23:53 -25.54195 -57.52579 36118 ft 498 kts 190°
2026-04-27 23:54 -25.61140 -57.52676 36131 ft 498 kts 190°
2026-04-27 23:54 -25.68077 -57.52772 36125 ft 498 kts 190°
2026-04-27 23:55 -25.74985 -57.52864 36133 ft 498 kts 190°
2026-04-27 23:55 -25.81936 -57.52955 36133 ft 498 kts 191°
2026-04-27 23:56 -25.88875 -57.53046 36136 ft 498 kts 191°
2026-04-27 23:56 -25.95770 -57.53136 36134 ft 498 kts 191°
2026-04-27 23:57 -26.02704 -57.53227 36138 ft 498 kts 191°
2026-04-27 23:57 -26.09634 -57.53318 36138 ft 498 kts 191°
2026-04-27 23:58 -26.16563 -57.53400 36137 ft 497 kts 191°
2026-04-27 23:58 -26.23488 -57.53477 36138 ft 497 kts 191°
2026-04-27 23:59 -26.30410 -57.53557 36128 ft 496 kts 191°
2026-04-27 23:59 -26.37270 -57.53636 36146 ft 496 kts 191°
2026-04-28 00:00 -26.44175 -57.53717 36144 ft 495 kts 191°
2026-04-28 00:00 -26.51068 -57.53797 36145 ft 495 kts 192°
2026-04-28 00:01 -26.57948 -57.53877 36152 ft 495 kts 192°
2026-04-28 00:01 -26.64834 -57.53958 36146 ft 494 kts 192°
2026-04-28 00:02 -26.71714 -57.54038 36144 ft 494 kts 192°
2026-04-28 00:02 -26.78549 -57.54118 36145 ft 494 kts 192°
2026-04-28 00:03 -26.85421 -57.54199 36148 ft 494 kts 192°
2026-04-28 00:03 -26.92282 -57.54354 36154 ft 492 kts 193°
2026-04-28 00:04 -27.02568 -57.54669 36139 ft 492 kts 193°
2026-04-28 00:05 -27.09417 -57.54867 36154 ft 492 kts 193°
2026-04-28 00:05 -27.16239 -57.55056 36161 ft 493 kts 193°
2026-04-28 00:06 -27.23094 -57.55246 36157 ft 493 kts 193°
2026-04-28 00:06 -27.29951 -57.55438 36152 ft 493 kts 193°
2026-04-28 00:07 -27.36816 -57.55629 36154 ft 493 kts 194°
2026-04-28 00:07 -27.43666 -57.55822 36145 ft 492 kts 194°
2026-04-28 00:08 -27.50467 -57.56083 36152 ft 491 kts 194°
2026-04-28 00:08 -27.57292 -57.56382 36153 ft 491 kts 195°
2026-04-28 00:09 -27.64116 -57.56675 36156 ft 491 kts 195°
2026-04-28 00:09 -27.70948 -57.56959 36160 ft 491 kts 195°
2026-04-28 00:10 -27.77796 -57.57241 36155 ft 491 kts 195°
2026-04-28 00:10 -27.84593 -57.57522 36162 ft 491 kts 195°
2026-04-28 00:11 -27.91421 -57.57806 36157 ft 491 kts 195°
2026-04-28 00:11 -27.98253 -57.58090 36151 ft 491 kts 195°
2026-04-28 00:12 -28.05090 -57.58374 36160 ft 491 kts 195°
2026-04-28 00:12 -28.11926 -57.58659 36163 ft 492 kts 195°
2026-04-28 00:13 -28.18764 -57.58944 36161 ft 492 kts 195°
2026-04-28 00:13 -28.25630 -57.59173 36158 ft 494 kts 194°
2026-04-28 00:14 -28.32468 -57.59317 36160 ft 494 kts 194°
2026-04-28 00:14 -28.39359 -57.59460 36161 ft 494 kts 194°
2026-04-28 00:15 -28.46239 -57.59617 36159 ft 494 kts 194°
2026-04-28 00:15 -28.53072 -57.59781 36161 ft 494 kts 194°
2026-04-28 00:16 -28.59954 -57.59946 36151 ft 493 kts 194°
2026-04-28 00:16 -28.66828 -57.60110 36162 ft 493 kts 194°
2026-04-28 00:17 -28.73654 -57.60274 36164 ft 493 kts 194°
2026-04-28 00:17 -28.80539 -57.60438 36167 ft 493 kts 194°
2026-04-28 00:18 -28.87365 -57.60602 36166 ft 493 kts 193°
2026-04-28 00:18 -28.94224 -57.60766 36165 ft 492 kts 193°
2026-04-28 00:19 -29.01081 -57.60931 36158 ft 492 kts 193°
2026-04-28 00:19 -29.07871 -57.61094 36159 ft 491 kts 193°
2026-04-28 00:20 -29.14700 -57.61258 36157 ft 490 kts 193°
2026-04-28 00:20 -29.21521 -57.61423 36161 ft 490 kts 193°
2026-04-28 00:21 -29.28326 -57.61585 36158 ft 489 kts 192°
2026-04-28 00:21 -29.35142 -57.61736 36159 ft 489 kts 192°
2026-04-28 00:22 -29.41953 -57.61887 36162 ft 489 kts 192°
2026-04-28 00:22 -29.48746 -57.62038 36153 ft 488 kts 192°
2026-04-28 00:23 -29.55529 -57.62190 36158 ft 487 kts 192°
2026-04-28 00:23 -29.62264 -57.62341 36161 ft 487 kts 191°
2026-04-28 00:24 -29.69033 -57.62494 36160 ft 486 kts 191°
2026-04-28 00:24 -29.75799 -57.62646 36155 ft 485 kts 191°
2026-04-28 00:25 -29.82561 -57.62799 36145 ft 485 kts 191°
2026-04-28 00:25 -29.89308 -57.62951 36151 ft 484 kts 191°
2026-04-28 00:26 -29.94913 -57.63078 36151 ft 483 kts 191°
2026-04-28 00:26 -30.01602 -57.63230 36158 ft 483 kts 191°
2026-04-28 00:27 -30.08333 -57.63382 36143 ft 482 kts 190°
2026-04-28 00:27 -30.16130 -57.63559 36148 ft 481 kts 190°
2026-04-28 00:28 -30.21695 -57.63685 36150 ft 480 kts 189°
2026-04-28 00:28 -30.28448 -57.63027 36147 ft 494 kts 178°
2026-04-28 00:29 -30.35155 -57.60951 36151 ft 502 kts 171°
2026-04-28 00:29 -30.41822 -57.58476 36152 ft 502 kts 170°
2026-04-28 00:30 -30.48482 -57.56034 36149 ft 501 kts 171°
2026-04-28 00:30 -30.55140 -57.53645 36147 ft 500 kts 171°
2026-04-28 00:31 -30.61751 -57.51283 36146 ft 499 kts 171°
2026-04-28 00:31 -30.68396 -57.48901 36150 ft 499 kts 171°
2026-04-28 00:32 -30.75025 -57.46519 36146 ft 498 kts 171°
2026-04-28 00:32 -30.81653 -57.44134 36146 ft 497 kts 171°
2026-04-28 00:33 -30.88215 -57.41764 36147 ft 496 kts 171°
2026-04-28 00:33 -30.94809 -57.39376 36149 ft 496 kts 171°
2026-04-28 00:34 -31.01403 -57.36986 36144 ft 495 kts 171°
2026-04-28 00:34 -31.07981 -57.34598 36149 ft 495 kts 171°
2026-04-28 00:35 -31.14565 -57.32204 36148 ft 495 kts 171°
2026-04-28 00:35 -31.21140 -57.29810 36150 ft 495 kts 171°
2026-04-28 00:36 -31.27675 -57.27428 36147 ft 495 kts 171°
2026-04-28 00:36 -31.34248 -57.25028 36147 ft 494 kts 171°
2026-04-28 00:37 -31.40826 -57.22622 36138 ft 494 kts 171°
2026-04-28 00:37 -31.47388 -57.20218 36146 ft 494 kts 171°
2026-04-28 00:38 -31.53957 -57.17809 36145 ft 494 kts 171°
2026-04-28 00:38 -31.60528 -57.15395 36153 ft 494 kts 171°
2026-04-28 00:39 -31.67045 -57.12997 36155 ft 494 kts 171°
2026-04-28 00:39 -31.73608 -57.10589 36144 ft 490 kts 173°
2026-04-28 00:39 -31.76915 -57.09890 36144 ft 474 kts 186°
2026-04-28 00:40 -31.80157 -57.10024 36147 ft 461 kts 196°
2026-04-28 00:40 -31.83251 -57.10784 36154 ft 448 kts 206°
2026-04-28 00:40 -31.86099 -57.12148 36150 ft 440 kts 212°
2026-04-28 00:41 -31.91727 -57.15012 36143 ft 443 kts 210°
2026-04-28 00:41 -31.97488 -57.17696 36144 ft 446 kts 209°
2026-04-28 00:42 -32.03288 -57.20325 36147 ft 446 kts 209°
2026-04-28 00:42 -32.09082 -57.22968 36146 ft 446 kts 209°
2026-04-28 00:43 -32.14856 -57.25624 36132 ft 445 kts 209°
2026-04-28 00:43 -32.20611 -57.28281 36130 ft 444 kts 209°
2026-04-28 00:44 -32.26315 -57.30919 36132 ft 442 kts 209°
2026-04-28 00:44 -32.32040 -57.33569 36139 ft 441 kts 209°
2026-04-28 00:45 -32.37749 -57.36216 36134 ft 440 kts 209°
2026-04-28 00:45 -32.43459 -57.38867 36135 ft 439 kts 209°
2026-04-28 00:46 -32.49122 -57.41500 36137 ft 439 kts 209°
2026-04-28 00:46 -32.54802 -57.44144 36131 ft 438 kts 209°
2026-04-28 00:47 -32.60492 -57.46796 36132 ft 438 kts 209°
2026-04-28 00:47 -32.66161 -57.49443 36129 ft 437 kts 209°
2026-04-28 00:48 -32.71788 -57.52072 36135 ft 437 kts 209°
2026-04-28 00:48 -32.77448 -57.54721 36130 ft 437 kts 209°
2026-04-28 00:49 -32.83121 -57.57380 36126 ft 436 kts 209°
2026-04-28 00:49 -32.88738 -57.60016 36128 ft 436 kts 209°
2026-04-28 00:50 -32.94378 -57.62667 36127 ft 435 kts 209°
2026-04-28 00:50 -33.00007 -57.65315 36129 ft 435 kts 209°
2026-04-28 00:51 -33.05641 -57.67971 36133 ft 435 kts 209°
2026-04-28 00:51 -33.11262 -57.70623 36128 ft 434 kts 209°
2026-04-28 00:52 -33.16887 -57.73282 36125 ft 434 kts 209°
2026-04-28 00:52 -33.22467 -57.75922 36132 ft 434 kts 209°
2026-04-28 00:53 -33.28082 -57.78583 36130 ft 434 kts 209°
2026-04-28 00:53 -33.33690 -57.81244 36128 ft 433 kts 209°
2026-04-28 00:54 -33.39281 -57.83899 35944 ft 429 kts 209°
2026-04-28 00:54 -33.42064 -57.85224 35428 ft 428 kts 209°
2026-04-28 00:54 -33.44816 -57.86533 34949 ft 424 kts 209°
2026-04-28 00:54 -33.47547 -57.87833 34462 ft 419 kts 209°
2026-04-28 00:55 -33.50250 -57.89121 33954 ft 415 kts 209°
2026-04-28 00:55 -33.52925 -57.90397 33409 ft 412 kts 209°
2026-04-28 00:55 -33.55546 -57.91643 32897 ft 408 kts 209°
2026-04-28 00:55 -33.58183 -57.92894 32391 ft 404 kts 209°
2026-04-28 00:56 -33.60791 -57.94131 31915 ft 400 kts 209°
2026-04-28 00:56 -33.63373 -57.95359 31434 ft 397 kts 209°
2026-04-28 00:56 -33.65899 -57.96561 30966 ft 394 kts 209°
2026-04-28 00:56 -33.68434 -57.97769 30502 ft 391 kts 209°
2026-04-28 00:57 -33.70955 -57.98971 30006 ft 388 kts 209°
2026-04-28 00:57 -33.73468 -58.00170 29490 ft 386 kts 209°
2026-04-28 00:57 -33.75950 -58.01356 28988 ft 382 kts 209°
2026-04-28 00:57 -33.78415 -58.02533 28514 ft 379 kts 209°
2026-04-28 00:58 -33.80853 -58.03699 28041 ft 376 kts 209°
2026-04-28 00:58 -33.83278 -58.04859 27584 ft 373 kts 209°
2026-04-28 00:58 -33.85683 -58.06010 27120 ft 371 kts 209°
2026-04-28 00:58 -33.88044 -58.07142 26681 ft 369 kts 209°
2026-04-28 00:59 -33.90420 -58.08281 26241 ft 367 kts 209°
2026-04-28 00:59 -33.92791 -58.09418 25795 ft 365 kts 209°
2026-04-28 00:59 -33.95145 -58.10548 25351 ft 364 kts 209°
2026-04-28 00:59 -33.97492 -58.11676 24905 ft 363 kts 209°
2026-04-28 01:00 -33.99833 -58.12801 24469 ft 362 kts 208°
2026-04-28 01:00 -34.02170 -58.13926 24015 ft 361 kts 208°
2026-04-28 01:00 -34.04514 -58.15053 23548 ft 362 kts 208°
2026-04-28 01:00 -34.06847 -58.16177 23044 ft 361 kts 208°
2026-04-28 01:01 -34.09143 -58.17282 22582 ft 359 kts 208°
2026-04-28 01:01 -34.11459 -58.18398 22141 ft 357 kts 208°
2026-04-28 01:01 -34.13768 -58.19511 21712 ft 356 kts 208°
2026-04-28 01:01 -34.16069 -58.20620 21241 ft 354 kts 208°
2026-04-28 01:02 -34.18357 -58.21724 20819 ft 353 kts 208°
2026-04-28 01:02 -34.20628 -58.22833 20397 ft 351 kts 208°
2026-04-28 01:02 -34.22887 -58.23946 19948 ft 350 kts 208°
2026-04-28 01:02 -34.25124 -58.25051 19524 ft 349 kts 208°
2026-04-28 01:03 -34.27372 -58.26163 19088 ft 349 kts 208°
2026-04-28 01:03 -34.29619 -58.27275 18653 ft 349 kts 208°
2026-04-28 01:03 -34.31866 -58.28386 18162 ft 349 kts 208°
2026-04-28 01:03 -34.34112 -58.29498 17689 ft 348 kts 207°
2026-04-28 01:04 -34.36353 -58.30606 17229 ft 347 kts 207°
2026-04-28 01:04 -34.38578 -58.31707 16786 ft 345 kts 207°
2026-04-28 01:04 -34.40798 -58.32806 16336 ft 344 kts 207°
2026-04-28 01:04 -34.42982 -58.33888 15909 ft 342 kts 207°
2026-04-28 01:05 -34.45189 -58.34982 15480 ft 341 kts 207°
2026-04-28 01:05 -34.47387 -58.36073 15046 ft 339 kts 207°
2026-04-28 01:05 -34.49570 -58.37156 14631 ft 338 kts 207°
2026-04-28 01:05 -34.51753 -58.38241 14208 ft 338 kts 206°
2026-04-28 01:06 -34.53892 -58.39304 13765 ft 337 kts 206°
2026-04-28 01:06 -34.56061 -58.40382 13280 ft 336 kts 206°
2026-04-28 01:06 -34.58224 -58.41458 12832 ft 335 kts 206°
2026-04-28 01:06 -34.60374 -58.42528 12407 ft 333 kts 206°
2026-04-28 01:07 -34.62512 -58.43592 11985 ft 331 kts 206°
2026-04-28 01:07 -34.64642 -58.44654 11567 ft 330 kts 206°
2026-04-28 01:07 -34.66766 -58.45713 11149 ft 328 kts 206°
2026-04-28 01:07 -34.68165 -58.46411 10872 ft 327 kts 205°
2026-04-28 01:08 -34.70944 -58.47798 10460 ft 321 kts 205°
2026-04-28 01:08 -34.72992 -58.48819 10271 ft 313 kts 205°
2026-04-28 01:08 -34.74976 -58.49810 10114 ft 304 kts 205°
2026-04-28 01:08 -34.76911 -58.50777 9936 ft 297 kts 205°
2026-04-28 01:09 -34.78809 -58.51727 9724 ft 291 kts 206°
2026-04-28 01:09 -34.80671 -58.52659 9522 ft 284 kts 205°
2026-04-28 01:09 -34.82431 -58.53536 9229 ft 264 kts 206°
2026-04-28 01:09 -34.84110 -58.54373 8650 ft 258 kts 205°
2026-04-28 01:10 -34.85765 -58.55195 8369 ft 255 kts 205°
2026-04-28 01:10 -34.87381 -58.55997 8132 ft 251 kts 205°
2026-04-28 01:10 -34.88986 -58.56792 7913 ft 246 kts 205°
2026-04-28 01:10 -34.90563 -58.57522 7729 ft 239 kts 197°
2026-04-28 01:11 -34.92251 -58.57487 7582 ft 255 kts 169°
2026-04-28 01:11 -34.93991 -58.56773 7330 ft 269 kts 163°
2026-04-28 01:11 -34.95761 -58.55981 7032 ft 272 kts 163°
2026-04-28 01:11 -34.97540 -58.55185 6732 ft 271 kts 163°
2026-04-28 01:12 -34.99302 -58.54399 6438 ft 270 kts 163°
2026-04-28 01:12 -35.01063 -58.53617 6134 ft 268 kts 163°
2026-04-28 01:12 -35.02220 -58.53106 5937 ft 266 kts 163°
2026-04-28 01:12 -35.04519 -58.52094 5598 ft 262 kts 163°
2026-04-28 01:13 -35.06223 -58.51346 5365 ft 258 kts 163°
2026-04-28 01:13 -35.09006 -58.50132 5124 ft 256 kts 163°
2026-04-28 01:13 -35.10648 -58.49419 5128 ft 245 kts 163°
2026-04-28 01:14 -35.12227 -58.48730 5113 ft 238 kts 163°
2026-04-28 01:14 -35.13945 -58.47100 5071 ft 244 kts 116°
2026-04-28 01:14 -35.14229 -58.45793 5074 ft 240 kts 89°
2026-04-28 01:14 -35.13809 -58.43911 5064 ft 227 kts 55°
2026-04-28 01:15 -35.12777 -58.42500 5012 ft 224 kts 34°
2026-04-28 01:15 -35.11383 -58.41687 4736 ft 220 kts
2026-04-28 01:15 -35.09911 -58.41669 4552 ft 203 kts 335°
2026-04-28 01:15 -35.08838 -58.42620 4607 ft 194 kts 316°
2026-04-28 01:16 -35.07706 -58.43652 4450 ft 209 kts 327°
2026-04-28 01:16 -35.06385 -58.44341 4358 ft 201 kts 337°
2026-04-28 01:16 -35.05093 -58.44874 4257 ft 190 kts 339°
2026-04-28 01:16 -35.03838 -58.45344 4079 ft 189 kts 340°
2026-04-28 01:17 -35.02584 -58.45794 3878 ft 187 kts 340°
2026-04-28 01:17 -35.01345 -58.46231 3641 ft 187 kts 340°
2026-04-28 01:17 -35.00093 -58.46670 3419 ft 187 kts 340°
2026-04-28 01:17 -34.98849 -58.47105 3200 ft 184 kts 340°
2026-04-28 01:18 -34.97619 -58.47536 2950 ft 184 kts 340°
2026-04-28 01:18 -34.96386 -58.47967 2712 ft 184 kts 340°
2026-04-28 01:18 -34.95171 -58.48391 2460 ft 179 kts 340°
2026-04-28 01:18 -34.94006 -58.48797 2270 ft 166 kts 340°
2026-04-28 01:19 -34.92903 -58.49184 2099 ft 170 kts 340°
2026-04-28 01:19 -34.91776 -58.49578 1871 ft 167 kts 340°
2026-04-28 01:19 -34.90677 -58.49961 1648 ft 160 kts 340°
2026-04-28 01:19 -34.89659 -58.50316 1411 ft 145 kts 339°
2026-04-28 01:20 -34.88729 -58.50641 1215 ft 136 kts 339°
2026-04-28 01:20 -34.87801 -58.50968 1057 ft 142 kts 339°
2026-04-28 01:20 -34.86833 -58.51306 840 ft 146 kts 341°
2026-04-28 01:20 -34.85859 -58.51648 650 ft 145 kts 341°
2026-04-28 01:21 -34.84900 -58.51986 422 ft 143 kts 342°
2026-04-28 01:21 -34.83953 -58.52312 225 ft 141 kts 343°
2026-04-28 01:21 -34.83035 -58.52629 98 ft 133 kts 343°
2026-04-28 01:21 -34.82236 -58.52909 91 ft 101 kts 345°
2026-04-28 01:22 -34.81709 -58.53091 88 ft 56 kts 344°
2026-04-28 01:22 -34.81445 -58.53184 88 ft 29 kts 344°
2026-04-28 01:22 -34.81313 -58.53229 90 ft 13 kts 344°
2026-04-28 01:22 -34.81224 -58.53259 91 ft 13 kts 342°
2026-04-28 01:23 -34.81170 -58.53340 89 ft 14 kts 273°
2026-04-28 01:23 -34.81166 -58.53441 82 ft 8 kts 274°
2026-04-28 01:23 -34.81162 -58.53497 81 ft 5 kts 274°
2026-04-28 01:23 -34.81162 -58.53521 81 ft 2 kts 268°
2026-04-28 01:24 -34.81162 -58.53522 81 ft 0 kts 267°
2026-04-28 01:24 -34.81162 -58.53523 81 ft 0 kts 267°
2026-04-28 01:24 -34.81162 -58.53526 81 ft 1 kts 267°
2026-04-28 01:25 -34.81163 -58.53536 81 ft 0 kts 267°
2026-04-28 01:25 -34.81163 -58.53544 81 ft 2 kts 267°
2026-04-28 01:25 -34.81171 -58.53561 80 ft 3 kts 230°
2026-04-28 01:25 -34.81191 -58.53576 82 ft 4 kts 202°
2026-04-28 01:26 -34.81223 -58.53584 85 ft 5 kts 186°
2026-04-28 01:26 -34.81238 -58.53585 84 ft 0 kts 183°
2026-04-28 01:27 -34.81240 -58.53585 84 ft 3 kts 183°
2026-04-28 01:27 -34.81292 -58.53587 85 ft 7 kts 181°
2026-04-28 01:28 -34.81346 -58.53589 83 ft 8 kts 184°
2026-04-28 01:28 -34.81404 -58.53601 84 ft 9 kts 194°
2026-04-28 01:28 -34.81462 -58.53625 83 ft 9 kts 201°
2026-04-28 01:28 -34.81523 -58.53660 82 ft 10 kts 208°
2026-04-28 01:29 -34.81575 -58.53706 83 ft 9 kts 221°
2026-04-28 01:29 -34.81619 -58.53755 85 ft 9 kts 223°
2026-04-28 01:29 -34.81664 -58.53806 84 ft 6 kts 223°
2026-04-28 01:29 -34.81696 -58.53845 85 ft 7 kts 231°
2026-04-28 01:30 -34.81686 -58.53895 85 ft 7 kts 319°
2026-04-28 01:30 -34.81649 -58.53938 84 ft 7 kts 314°
2026-04-28 01:30 -34.81632 -58.53956 85 ft 3 kts 322°
2026-04-28 01:30 -34.81615 -58.53971 85 ft 3 kts 322°
2026-04-28 01:31 -34.81607 -58.53980 84 ft 1 kts 322°
2026-04-28 01:31 -34.81606 -58.53980 84 ft 0 kts 322°